This demonstration page uses our WeatherBlox Daily Observations layout. Learn more.

Left ArrowRight Arrow

Hourly Observations for August 12, 2022

Temp ( °F °C ) Dew Point ( °F °C ) Humidity (%) Winds ( mph kmh ) Pressure ( in mb ) Visibility ( mi km ) Precip ( " mm )
12:53 am 00:53 Clear 67 19.4 48 8.9 51 51 SW 3 6 29.94 1014 10 16 0.00 0.00
1:53 am 01:53 Clear 65 18.3 47 8.3 52 52 WSW 5 7 29.94 1014 10 16 0.00 0.00
2:53 am 02:53 Clear 66 18.9 48 8.9 52 52 WSW 8 13 29.94 1014 10 16 0.00 0.00
3:53 am 03:53 Clear 63 17.2 47 8.3 56 56 W 12 19 29.97 1015 10 16 0.00 0.00
4:53 am 04:53 Clear 64 17.8 47 8.3 54 54 SW 8 13 29.97 1015 10 16 0.00 0.00
5:53 am 05:53 Clear 62 16.7 47 8.3 58 58 WNW 5 7 29.98 1015 10 16 0.00 0.00
6:53 am 06:53 Sunny 64 17.8 46 7.8 52 52 SW 8 13 30.01 1016 10 16 0.00 0.00
7:53 am 07:53 Sunny 70 21.1 49 9.4 47 47 SW 6 9 30.01 1016 10 16 0.00 0.00
8:53 am 08:53 Sunny 73 22.8 55 12.8 53 53 W 7 11 30.02 1017 10 16 0.00 0.00
9:53 am 09:53 Sunny 78 25.6 57 13.9 48 48 W 6 9 30.01 1016 10 16 0.00 0.00
10:53 am 10:53 Sunny 82 27.8 57 13.9 43 43 Calm 30.01 1016 10 16 0.00 0.00
11:53 am 11:53 Sunny 88 31.1 57 13.9 35 35 Calm 29.99 1016 10 16 0.00 0.00
12:53 pm 12:53 Sunny 93 33.9 53 11.7 26 26 Calm 29.97 1015 10 16 0.00 0.00
1:53 pm 13:53 Sunny 95 35 49 9.4 21 21 VRB 5 7 29.96 1015 10 16 0.00 0.00
2:53 pm 14:53 Sunny 98 36.7 46 7.8 17 17 ENE 5 7 29.93 1014 10 16 0.00 0.00
3:53 pm 15:53 Sunny 98 36.7 43 6.1 15 15 ENE 5 7 29.90 1013 10 16 0.00 0.00
4:53 pm 16:53 Sunny 99 37.2 42 5.6 14 14 Calm 29.88 1012 10 16 0.00 0.00
5:53 pm 17:53 Sunny 98 36.7 42 5.6 15 15 SE 5 7 29.87 1012 10 16 0.00 0.00
6:53 pm 18:53 Sunny 92 33.3 50 10 24 24 ENE 21 33 29.88 1012 10 16 0.00 0.00
7:53 pm 19:53 Sunny 88 31.1 50 10 27 27 E 17 28 29.89 1012 10 16 0.00 0.00
8:40 pm 20:40 Windy with Storms Likely 78 25.6 57 13.9 48 48 N 22 35 29.87 1012 9 14 0.01 0.13
8:53 pm 20:53 Cloudy with Nearby Thunderstorms 72 22.2 61 16.1 68 68 N 29 46 29.98 1015 10 16 0.01 0.13
9:22 pm 21:22 Mostly Clear 71 21.7 57 13.9 61 61 N 26 43 29.98 1015 10 16 0.01 0.13
9:53 pm 21:53 Partly Cloudy 71 21.7 56 13.3 59 59 N 16 26 30.04 1017 10 16 0.01 0.13
10:53 pm 22:53 Cloudy with Light Rain 67 19.4 60 15.6 79 79 E 23 37 30.00 1016 10 16 0.02 0.51
11:00 pm 23:00 Cloudy with Rain 65 18.3 61 16.1 87 87 ESE 22 35 29.97 1015 7 11 0.01 0.25
11:53 pm 23:53 Clear 66 18.9 60 15.6 81 81 E 13 20 29.98 1015 10 16 0.02 0.51

Powered by AerisWeather